Location: Bryzozowice
(50.3667°N, 18.9667°E)
Time: 17:10:34
(UTC+00:00)

CZ-4 R/B - Pass Details

Date: 24 January 2020
Orbit: 533 x 597 km, 97.7° (Epoch: 25 February)

Event Time Altitude Azimuth Distance (km) Brightness Sun altitude
Rises 15:51:17 0° 129° (SE) 2,774 4.6 -4.9°
Reaches altitude 10° 15:53:44 10° 115° (ESE) 1,892 3.7 -5.3°
Maximum altitude 15:56:58 23° 63° (ENE) 1,268 2.6 -5.7°
Drops below altitude 10° 16:00:15 10° 11° (N) 1,929 3.8 -6.2°
Sets 16:02:46 0° 357° (N) 2,843 4.8 -6.6°
